Torna al catalogo

TITAN 3C TRANSTAGE DEB

LostHEO
NORAD 5515·DEBRIS·🇺🇸 United States

Lanciato Dec 21, 1965 da Cape Canaveral Space Force Station

Loading…

Prossimi Passaggi (prossime 24 ore)

TLE

ObsoletoSource: Space-Track

Epoca: Aug 1, 2025, 19:22 UTC

1  5515U 65108M   25213.80721609 -.00000039  00000-0  00000+0 0  9994
2  5515  27.9057  51.9069 6616372 147.4308 353.0230  2.65898456210783

Traccia TITAN 3C TRANSTAGE DEB in tempo reale con AllMySat

Download on the App Store